TimeCDT,TemperatureF,Dew PointF,Humidity,Sea Level PressureIn,VisibilityMPH,Wind Direction,Wind SpeedMPH,Gust SpeedMPH,PrecipitationIn,Events,Conditions,WindDirDegrees,DateUTC
12:53 AM,66.9,61.0,81,29.86,10.0,South,3.5,-,N/A,,Mostly Cloudy,170,2013-06-17 05:53:00
1:53 AM,66.0,57.9,75,29.85,10.0,SE,4.6,-,N/A,,Partly Cloudy,130,2013-06-17 06:53:00
2:53 AM,66.9,57.0,70,29.86,10.0,South,8.1,-,N/A,,Partly Cloudy,180,2013-06-17 07:53:00
3:53 AM,66.0,57.0,73,29.85,10.0,South,6.9,-,N/A,,Clear,170,2013-06-17 08:53:00
4:53 AM,64.0,57.9,80,29.85,10.0,SSE,6.9,-,N/A,,Clear,160,2013-06-17 09:53:00
5:53 AM,64.0,57.0,78,29.85,10.0,South,3.5,-,N/A,,Clear,170,2013-06-17 10:53:00
6:53 AM,66.9,57.9,73,29.86,10.0,South,3.5,-,N/A,,Clear,190,2013-06-17 11:53:00
7:53 AM,70.0,57.9,65,29.88,10.0,SSW,4.6,-,N/A,,Clear,210,2013-06-17 12:53:00
8:53 AM,75.0,57.9,55,29.90,10.0,Calm,Calm,-,N/A,,Partly Cloudy,0,2013-06-17 13:53:00
9:53 AM,75.0,59.0,57,29.90,10.0,South,4.6,-,N/A,,Mostly Cloudy,170,2013-06-17 14:53:00
10:53 AM,79.0,61.0,54,29.89,10.0,Variable,3.5,-,N/A,,Partly Cloudy,0,2013-06-17 15:53:00
11:53 AM,82.9,55.9,39,29.89,10.0,WNW,6.9,-,N/A,,Partly Cloudy,300,2013-06-17 16:53:00
12:53 PM,82.0,55.0,39,29.89,10.0,NW,10.4,-,N/A,,Scattered Clouds,310,2013-06-17 17:53:00
1:53 PM,84.9,55.0,36,29.88,10.0,NW,13.8,-,N/A,,Partly Cloudy,320,2013-06-17 18:53:00
2:53 PM,84.9,55.0,36,29.88,10.0,NW,12.7,-,N/A,,Scattered Clouds,310,2013-06-17 19:53:00
3:53 PM,82.0,53.1,37,29.87,10.0,NNW,10.4,-,N/A,,Partly Cloudy,330,2013-06-17 20:53:00
4:53 PM,84.0,54.0,35,29.86,10.0,NW,11.5,-,N/A,,Partly Cloudy,320,2013-06-17 21:53:00
5:53 PM,84.0,53.1,34,29.86,10.0,NW,10.4,-,N/A,,Clear,310,2013-06-17 22:53:00
6:53 PM,80.1,55.0,42,29.86,10.0,NNE,12.7,-,N/A,,Clear,30,2013-06-17 23:53:00
7:53 PM,77.0,55.9,48,29.87,10.0,North,5.8,-,N/A,,Clear,10,2013-06-18 00:53:00
8:53 PM,73.0,55.9,55,29.89,10.0,Calm,Calm,-,N/A,,Clear,0,2013-06-18 01:53:00
9:53 PM,69.1,59.0,70,29.91,10.0,North,3.5,-,N/A,,Clear,10,2013-06-18 02:53:00
10:53 PM,70.0,57.0,63,29.92,10.0,East,6.9,-,N/A,,Mostly Cloudy,90,2013-06-18 03:53:00
11:53 PM,69.1,59.0,70,29.93,10.0,SE,3.5,-,N/A,,Overcast,130,2013-06-18 04:53:00